www.pogodaiklimat.ru

Погода и климат >> Архив погоды >> Китай >> Guai Zi Hu


ПОГОДА в Guai Zi Hu

  • Прогноз погоды в Guai Zi Hu
  • Монитор погоды в Guai Zi Hu
  • Климат города

АРХИВ ПОГОДЫ в Guai Zi Hu

Время (UTC), дата Ветер
(напр.,м/с)
 
Видим.   Явления Облачность Т
(С)
Тd
(С)
f
(%)
Тe
(С)
Тes
(С)
Комфортность P
(гПа)
Po
(гПа)
Тmin
(С)
Tmax
(С)
R
(мм)
R24
(мм)
S
(см)
06 19.06 В 4 28 км 9/9 2000 м
[]
+32.0 -0.9 12 +29 +30 жарко 1002.8 1020.2 +22.4
09 19.06 СЗ 3 26 км 9/9 2000 м
[]
+33.1 -1.3 11 +30 +30 жарко 1001.2 1001.0
12 19.06 В 4 30 км 9/9 2000 м
[]
+31.0 -4.2 10 +27 +27 жарко 1000.6 898.0
18 19.06 В 3 30 км ?/? +23.5 -5.5 14 +22 +22 комфорт 1000.3 1000.0 +33.5
21 19.06 Ю 5 29 км ?/? +23.7 +5.6 31 +24 +24 комфорт 999.1 999.0
00 20.06 Ю 7 29 км 10/10
[]
+27.6 +5.2 24 +27 +27 жарко 998.7 999.0
03 20.06 З 11 3400 м пыльный позёмок 10/10 2000 м
[]
+31.3 +5.7 20 +29 +29 жарко 998.4 998.0
06 20.06 З 7 12 км 10/10 2000 м
[]
+27.7 +6.5 26 +27 +27 жарко 999.5 1000.0 +22.7
09 20.06 З 3 22 км 9/9 2000 м
[]
+29.4 +2.6 18 +27 +28 жарко 997.5 998.0
12 20.06 З 5 22 км 9/9 2000 м
[]
+28.7 +3.5 20 +27 +27 жарко 997.3 997.0
18 20.06 СЗ 2 28 км ?/? +22.9 +5.8 33 +23 +23 комфорт 999.7 1000.0 +32.5
21 20.06 В 3 30 км ?/? +22.4 +7.0 37 +23 +23 комфорт 999.4 999.0
00 21.06 В 8 27 км 9/9 2000 м
[]
+20.8 +8.8 46 +22 +22 комфорт 1001.4 1001.0
03 21.06 В 8 23 км 9/9 2000 м
[]
+23.3 +8.6 39 +25 +25 комфорт 1003.3 1003.0
06 21.06 З 1 24 км 5/5 2000 м
[]
+27.5 +6.3 26 +27 +38 жарко 1001.9 1002.0 +19.7
09 21.06 С 4 30 км 9/9 2000 м
[]
+29.5 +3.5 19 +27 +28 жарко 999.7 1000.0
12 21.06 С 3 23 км 9/9
[]
+29.1 +3.9 20 +27 +27 жарко 1000.4 1000.0
18 21.06 В 5 22 км ?/? +19.4 +6.2 42 +20 +20 1002.7 1003.0 +30.4
21 21.06 В 4 30 км ?/? +16.1 +7.1 55 +15 +15 1004.0 1004.0
00 22.06 В 6 30 км 6/6
[]
+18.2 +7.9 51 +18 +18 1005.5 1006.0
03 22.06 С 5 30 км 5/5 2000 м
[]
+21.6 +6.7 38 +22 +27 комфорт 1006.6 1007.0
06 22.06 В 8 26 км 9/9 2000 м
[]
+24.9 +3.5 25 +24 +24 комфорт 1005.8 1006.0 +14.7
09 22.06 С 6 19 км 4/4 2000 м
[]
+24.2 +4.0 27 +24 +26 комфорт 1006.6 1007.0
12 22.06 В 6 27 км 3/3 2000 м
[]
+22.4 +5.4 33 +23 +23 комфорт 1008.4 1008.0
18 22.06 З 2 13 км ?/? +17.2 +1.2 34 +18 +18 1010.1 1010.0 +25.5
21 22.06 ЮЗ 3 30 км ?/? +15.9 +1.6 38 +16 +16 1009.8 1010.0
00 23.06 З 5 30 км 3/3 2000 м
[]
+18.3 +2.2 34 +18 +19 1010.9 1011.0
03 23.06 З 1 26 км 1/1 2000 м
[]
+26.1 +0.7 19 +24 +41 комфорт 1009.9 1010.0
06 23.06 В 6 28 км 3/3 2000 м
[]
+28.7 -1.4 14 +26 +31 жарко 1008.7 1009.0 +14.2
09 23.06 В 5 30 км 3/3 2000 м
[]
+30.7 -0.8 13 +28 +31 жарко 1006.5 1007.0
12 23.06 В 4 30 км 1/1 2000 м
[]
+30.1 -3.6 11 +27 +27 жарко 1005.8 1006.0
18 23.06 Ю 1 30 км ?/? +19.7 -6.0 17 +21 +21 комфорт 1007.9 1008.0 +30.9
21 23.06 В 4 30 км ?/? +18.3 -3.2 23 +18 +18 1007.9 1008.0
00 24.06 В 4 25 км 3/3
[]
+20.7 +2.0 29 +21 +23 комфорт 1008.3 1008.0
03 24.06 В 1 30 км 4/4
[]
+29.6 -2.8 12 +26 +38 жарко 1007.4 1007.0
06 24.06 В 5 30 км 9/9
[]
+31.7 -5.0 9 +28 +29 жарко 1006.5 1007.0 +15.2
09 24.06 СВ 2 30 км 9/9
[]
+32.6 -4.3 9 +29 +30 жарко 1004.6 1005.0
12 24.06 Ю 3 30 км 9/9
[]
+31.3 -6.9 8 +27 +27 жарко 1003.9 1004.0
18 24.06 Ю 5 26 км ?/? +22.8 -4.3 16 +21 +21 комфорт 1004.0 1004.0 +33.0
21 24.06 С 1 30 км ?/? +20.3 -3.4 20 +21 +21 комфорт 1004.6 1005.0
00 25.06 В 3 26 км 1/1
[]
+25.1 -0.1 19 +24 +26 комфорт 1005.0 1005.0
03 25.06 С 1 30 км ясно +32.2 -2.0 11 +29 +47 жарко 1004.2 1004.0
06 25.06 В 5 30 км 3/3
[]
+34.2 -3.2 9 +30 +37 жарко 1002.9 1002.5 +20.3
09 25.06 В 8 28 км 9/9
[]
+36.0 -5.2 7 +32 +32 жарко 1000.7 1001.0
12 25.06 Ю 7 30 км 9/9
[]
+34.2 -4.7 8 +30 +30 жарко 1000.0 1000.0
18 25.06 Ю 5 30 км ?/? +27.3 -3.5 13 +25 +25 комфорт 1001.0 1001.0 +36.1
21 25.06 Ю 5 30 км ?/? +23.6 -3.7 16 +22 +22 комфорт 1002.0 1002.0
00 26.06 Ю 5 29 км 6/6
[]
+28.3 -1.7 14 +26 +26 жарко 1002.3 1002.0

 

Местоположение метеостанции Guai Zi Hu (Китай): широта 41.37 долгота 102.36 высота над уровнем моря 960 м.

В архиве по умолчанию представлена погода в Guai Zi Hu за последнюю неделю. Архивные данные за месяц целиком и за предыдущие месяцы, начиная с января 2011 года, Вы можете получить, выбрав интересующий диапазон дат из раскрывающегося списка и нажав кнопку "Ввод!".

Внимание! Время в таблицах - всемирное. Для получения местного времени необходимо прибавить поправку, которая в Guai Zi Hu равна 8 ч.

Смотрите также архив погоды в соседних городах и на ближайших метеорологических станциях:

Погода в Ejin Qi (Китай) (126 км)
Погода в Bayan Mod (Китай) (192 км)
Погода в Shine Usa (Монголия) (246 км)
Погода в Dalanzadgad (Монголия) (298 км)
Погода в Minqin (Китай) (311 км)
Погода в Zhangye (Китай) (317 км)
Погода в Hails (Китай) (335 км)
Погода в Jartai (Китай) (337 км)
Погода в Bogd (Монголия) (365 км)
Погода в Jiuquan (Китай) (373 км)

Пояснения к столбцам:

Ветер - указаны скорость ветра в м/с - средняя за 10 мин, порывы в срок и между сроками (в фигурных скобках) и направление, откуда дует ветер: С - северный, СВ - северо-восточный, В - восточный, ЮВ - юго-восточный, Ю - южный, ЮЗ - юго-западный, З - западный, СЗ - северо-западный.
Видимость - горизонтальная дальность видимости в метрах или километрах. При видимости от 1 до 10 км при отсутствии осадков обычно наблюдается дымка, при ухудшении видимости до 1 км и менее - туман. В сухую погоду видимость может ухудшаться дымом, пылью или мглою.
Явления - указаны атмосферные явления, наблюдавшиеся в срок или в последний час перед сроком; фигурными скобками обозначены явления, наблюдавшиеся между сроками (за 1-3 часа до срока); квадратными скобками обозначены град или гололедные отложения с указанием их диаметра в мм.
Облачность - указаны через наклонную черту общая и нижняя облачность в баллах и высота нижней границы облаков в метрах; квадратными скобками обозначены формы облаков: Ci - перистые, Cs - перисто-слоистые, Cc - перисто-кучевые, Ac - высококучевые, As - высокослоистые, Sc - слоисто-кучевые, Ns - слоисто-дождевые, Cu - кучевые, Cb - кучево-дождевые. Подробнее классификацию облаков см. в Атласе облаков (PDF).
T - Температура воздуха - температура, измеренная на высоте 2 м над землей.
Td - Температура точки росы - температура, при понижении до которой содержащийся в воздухе водяной пар достигнет насыщения.
f - Относительная влажность воздуха - влажноcть воздуха, измеренная на высоте 2 м над землей.
Te - Эффективная температура - температура, которую ощущает одетый по сезону человек в тени. Характеристика душности погоды. При расчете учитывается влияние влажности воздуха и скорости ветра на теплоощущения человека.
Tes - Эффективная температура на солнце - температура, которую ощущает человек, с поправкой на солнечный нагрев. Характеристика знойности погоды. Зависит от высоты солнца над горизонтом, облачности и скорости ветра. Ночью, в пасмурную погоду, а также при ветре 12 м/с и более поправка равна нулю.
P - Атмосферное давление - приведенное к уровню моря атмосферное давление.
Po - Атмосферное давление - измеренное на уровне метеостанции атмосферное давление.
Tmin - Минимальная температура - минимум температуры воздуха на высоте 2 м над землей.
Tmax - Максимальная температура - максимум температуры воздуха на высоте 2 м над землей.
R - Количество осадков - Количество выпавших осадков за период времени, мм. При наведении курсора мыши на число - период времени, за который выпало указанное количество осадков.
R24 - Количество осадков - Количество выпавших осадков за 24 часа, мм.
S - Снежный покров - Высота снежного покрова, см. При наведении курсора мыши на число - состояние снежного покрова и степень покрытия местности в баллах.